Вернуться в каталог

STARLINK-3125

АктивенСвязьVLEO
NORAD 49451·PAYLOAD·🇺🇸 United States

Запущен Nov 13, 2021 с Cape Canaveral Space Force Station

Loading…

Ближайшие Пролёты (ближайшие 24 часа)

TLE

СвежийSource: CelesTrak SupGP

Эпоха: Sep 14, 2026, 21:58 UTC

1 49451C 21104AV  26257.91576389  .00043921  00000+0  13327-2 0  2574
2 49451  53.1580  78.0045 0001454  78.4740 115.7302 15.33526505    10

Отслеживайте STARLINK-3125 в реальном времени с AllMySat

Download on the App Store